Weather History for Grand Canyon, AZ

Change the Weather History Date:

Friday, October 26, 2012

  Actual Average Record
Temperature  
Mean Temperature 33 °F -  
Max Temperature 48 °F 55 °F 71 °F (1979)
Min Temperature 18 °F 25 °F 16 °F (1996)
Degree Days  
Heating Degree Days 32    
Moisture  
Dew Point 3 °F    
Average Humidity 33    
Maximum Humidity 65    
Minimum Humidity 13    
Precipitation  
Precipitation 0.00 in - - ()
Sea Level Pressure  
Sea Level Pressure 30.26 in    
Wind  
Wind Speed 6 mph (ENE)    
Max Wind Speed 21 mph    
Max Gust Speed 32 mph    
Visibility 10 miles    
Events      
Averages and records for this station are not official NWS values.
T = Trace of Precipitation, MM = Missing Value Source: NWS Daily Summary

Daily Weather History Graph

Daily Weather History Graph

Search for Another Location

Airport:

Trip Planner

Search our weather history database for the weather conditions in past years. The results will help you decide how hot, cold, wet, or windy it might be!

Date:

Astronomy

Oct. 26, 2012 Rise Set
Actual Time 6:45 AM MST 5:38 PM MST
Civil Twilight 6:19 AM MST 6:04 PM MST
Nautical Twilight 5:49 AM MST 6:34 PM MST
Astronomical Twilight 5:19 AM MST 7:04 PM MST
Moon 3:52 PM MST 3:50 AM MST
Length of Visible Light 11h 45m
Length of Day
10h 52m
Waxing Gibbous, 91% of the Moon is Illuminated
Oct 26
Waxing Gibbous
Oct 29
Full
Nov 6
Last Quarter
Nov 13
New
Nov 20
First Quarter

Hourly Weather History & Observations

Time (MST) Temp. Windchill Dew Point Humidity Pressure Visibility Wind Dir Wind Speed Gust Speed Precip Events Conditions
12:54 AM 21.9 °F - 10.0 °F 60% 30.25 in 10.0 mi Calm Calm - N/A   Clear
1:54 AM 18.0 °F - 8.1 °F 65% 30.28 in 10.0 mi Calm Calm - N/A   Clear
2:54 AM 23.0 °F - 10.9 °F 60% 30.25 in 10.0 mi Calm Calm - N/A   Clear
3:54 AM 18.0 °F - 8.1 °F 65% 30.27 in 10.0 mi Calm Calm - N/A   Clear
4:54 AM 21.9 °F - 10.0 °F 60% 30.27 in 10.0 mi Calm Calm - N/A   Clear
5:54 AM 32.0 °F 24.8 °F 10.9 °F 42% 30.24 in 10.0 mi ENE 8.1 mph 16.1 mph N/A   Clear
6:54 AM 32.0 °F 22.5 °F 10.9 °F 42% 30.30 in 10.0 mi ENE 12.7 mph - N/A   Clear
7:54 AM 35.1 °F 25.2 °F 12.0 °F 39% 30.32 in 10.0 mi ENE 16.1 mph 27.6 mph N/A   Clear
8:54 AM 37.9 °F 27.6 °F 7.0 °F 28% 30.34 in 10.0 mi ENE 20.7 mph 32.2 mph N/A   Clear
9:54 AM 39.9 °F 30.2 °F 5.0 °F 23% 30.34 in 10.0 mi ENE 20.7 mph 27.6 mph N/A   Clear
10:54 AM 43.0 °F 34.2 °F 3.0 °F 19% 30.33 in 10.0 mi ENE 20.7 mph 27.6 mph N/A   Clear
11:54 AM 44.1 °F 36.8 °F -0.9 °F 15% 30.30 in 10.0 mi ENE 16.1 mph 23.0 mph N/A   Clear
12:54 PM 46.0 °F 39.9 °F -0.0 °F 15% 30.28 in 10.0 mi East 13.8 mph 20.7 mph N/A   Clear
1:54 PM 48.0 °F - -2.0 °F 13% 30.26 in 10.0 mi ENE 12.7 mph - N/A   Clear
2:54 PM 48.9 °F - -0.9 °F 13% 30.22 in 10.0 mi NE 12.7 mph - N/A   Clear
3:54 PM 48.9 °F - -0.9 °F 13% 30.23 in 10.0 mi NE 10.4 mph 17.3 mph N/A   Clear
4:54 PM 46.0 °F 41.9 °F -2.9 °F 13% 30.22 in 10.0 mi East 8.1 mph - N/A   Clear
5:54 PM 42.1 °F 38.4 °F -2.0 °F 16% 30.20 in 10.0 mi ENE 5.8 mph - N/A   Clear
6:54 PM 39.0 °F 32.8 °F -2.0 °F 18% 30.22 in 10.0 mi NE 9.2 mph - N/A   Clear
7:54 PM 30.0 °F - -2.0 °F 25% 30.25 in 10.0 mi Calm Calm - N/A   Clear
8:54 PM 28.0 °F 24.2 °F -0.0 °F 30% 30.24 in 10.0 mi NE 3.5 mph - N/A   Clear
9:54 PM 21.9 °F 15.7 °F -2.0 °F 35% 30.26 in 10.0 mi NE 4.6 mph - N/A   Clear
10:54 PM 21.9 °F 15.7 °F -0.9 °F 37% 30.25 in 10.0 mi NE 4.6 mph - N/A   Clear
11:54 PM 21.9 °F 15.7 °F 1.0 °F 40% 30.22 in 10.0 mi NE 4.6 mph - N/A   Clear